Starlink 1269

operational
NORAD ID: 45197 Int'l Des: 2020-012 Owner: SPXS Country: US Constellation: starlink
LEOCIRCULARSTARLINK_TYPE

Starlink 1269について

説明を読み込み中...

リアルタイム位置

3D地球を読み込み中...

次回通過

高度履歴

Altitude vs Time

uPlot chart will show altitude changes over time

軌道要素

1 45197U 20012V 26035.25004628 .00052103 00000-0 17618-2 0 9990
2 45197 53.1611 194.9090 0001488 99.9877 309.5738 15.30148693 5838
Epoch: Feb 4, 2026 • Age: 5 hours

現在のステータス

高度 480.6 km
速度 7.63 km/s
衛星直下点 52.27°N, 1.2°E
打ち上げ日 Feb 17, 2020
運用期間 5.9 years
タイプ internet

技術仕様

分類 Payload
質量 260.00 kg
乾燥質量 248.00 kg
総質量 260.00 kg
長さ 0.20 m
直径 2.80 m
スパン 9.00 m
形状 Box + pan
製造者 SPXS
バスタイプ Starlink
フェーズステータス In Orbit
所有者/国 SPXS/US

大規模コンステレーション

Loading constellations...